This demonstration page uses our WeatherBlox Daily Observations layout. Learn more.

Left ArrowRight Arrow

39.92423, -83.80882

Hourly Observations for March 15, 2018

Temp ( °F °C ) Dew Point ( °F °C ) Humidity (%) Winds ( mph kmh ) Pressure ( in mb ) Visibility ( mi km ) Precip ( " mm )
12:56 am 00:56 Clear 30 -1.1 19 -7.2 64 64 SSW 9 15 29.89 1012 10 16 N/A
1:56 am 01:56 Clear 30 -1.1 20 -6.7 66 66 SW 10 17 29.85 1011 10 16 N/A
2:56 am 02:56 Clear 32 undefined 22 -5.6 66 66 SSW 10 17 29.80 1009 10 16 N/A
3:56 am 03:56 Clear 32 undefined 22 -5.6 66 66 SW 12 19 29.76 1008 10 16 N/A
4:56 am 04:56 Clear 34 1.1 22 -5.6 61 61 WSW 15 24 29.74 1007 10 16 N/A
5:56 am 05:56 Clear 33 0.6 23 -5 66 66 WSW 15 24 29.74 1007 10 16 N/A
6:56 am 06:56 Clear 32 undefined 24 -4.4 73 73 W 15 24 29.76 1008 10 16 N/A
7:56 am 07:56 Sunny 31 -0.6 24 -4.4 76 76 W 13 20 29.78 1008 10 16 N/A
8:56 am 08:56 Sunny 34 1.1 25 -3.9 70 70 W 14 22 29.80 1009 10 16 N/A
9:56 am 09:56 Sunny 37 2.8 26 -3.3 65 65 NW 18 30 29.82 1010 10 16 N/A
10:56 am 10:56 Sunny 39 3.9 26 -3.3 60 60 WNW 15 24 29.83 1010 10 16 N/A
11:56 am 11:56 Sunny 42 5.6 24 -4.4 49 49 NW 16 26 29.84 1010 10 16 N/A
12:56 pm 12:56 Sunny 44 6.7 21 -6.1 40 40 W 20 31 29.83 1010 10 16 N/A
1:56 pm 13:56 Sunny 46 7.8 22 -5.6 38 38 WNW 20 31 29.83 1010 10 16 N/A
2:56 pm 14:56 Sunny 47 8.3 23 -5 39 39 NW 14 22 29.81 1010 10 16 N/A
3:56 pm 15:56 Sunny 47 8.3 24 -4.4 41 41 NW 17 28 29.81 1010 10 16 N/A
4:56 pm 16:56 Sunny 47 8.3 23 -5 39 39 WNW 16 26 29.81 1009 10 16 N/A
5:56 pm 17:56 Sunny 47 8.3 24 -4.4 41 41 NW 18 30 29.81 1010 10 16 N/A
6:56 pm 18:56 Sunny 46 7.8 25 -3.9 44 44 WNW 13 20 29.82 1010 10 16 N/A
7:56 pm 19:56 Clear 42 5.6 25 -3.9 51 51 WNW 9 15 29.84 1010 10 16 N/A
8:56 pm 20:56 Clear 38 3.3 23 -5 55 55 NW 8 13 29.86 1011 10 16 N/A
9:56 pm 21:56 Clear 37 2.8 25 -3.9 62 62 NNW 9 15 29.88 1012 10 16 N/A
10:56 pm 22:56 Clear 34 1.1 23 -5 64 64 NNW 10 17 29.90 1013 10 16 N/A
11:56 pm 23:56 Clear 33 0.6 23 -5 66 66 NNW 13 20 29.92 1013 10 16 N/A

Powered by AerisWeather